• In Hungary
  • List of Countries
  • For 7 days
  • Water Temperature
  • Satellite Maps
  • Weather Map
  • News
  • Weather Widgets
  • user-avatar
    Login

    Hourly Weather Bolshaya Malyshevka

    Today, 22 May, Tuesday

    Time Temperature Precipitation Wind Pressure Humidity
    00:00 +10°C° 0 mm 3 mps 766 mmHg 77%
    01:00 +9°C° 0 mm 3 mps 766 mmHg 78%
    02:00 +9°C° 0 mm 3 mps 767 mmHg 78%
    03:00 +8°C° 0 mm 3 mps 767 mmHg 79%
    04:00 +9°C° 0 mm 3 mps 767 mmHg 75%
    05:00 +11°C° 0 mm 3 mps 768 mmHg 70%
    06:00 +12°C° 0 mm 3 mps 768 mmHg 65%
    07:00 +14°C° 0 mm 3 mps 768 mmHg 59%
    08:00 +16°C° 0 mm 3 mps 768 mmHg 53%
    09:00 +18°C° 0 mm 3 mps 769 mmHg 45%
    10:00 +19°C° 0 mm 3 mps 769 mmHg 42%
    11:00 +20°C° 0 mm 3 mps 769 mmHg 40%
    12:00 +21°C° 0 mm 3 mps 768 mmHg 37%
    13:00 +23°C° 0 mm 2 mps 768 mmHg 37%
    14:00 +23°C° 0 mm 2 mps 768 mmHg 37%
    15:00 +24°C° 0 mm 2 mps 767 mmHg 38%
    16:00 +23°C° 0 mm 2 mps 767 mmHg 43%
    17:00 +23°C° 0 mm 2 mps 767 mmHg 48%
    18:00 +21°C° 0 mm 2 mps 767 mmHg 53%
    19:00 +20°C° 0 mm 1 mps 767 mmHg 56%
    20:00 +19°C° 0 mm 1 mps 767 mmHg 59%
    21:00 +16°C° 0 mm 1 mps 767 mmHg 62%
    22:00 +15°C° 0 mm 1 mps 767 mmHg 64%
    23:00 +15°C° 0 mm 1 mps 767 mmHg 65%

    Tomorrow, 23 May, Wednesday

    Time Temperature Precipitation Wind Pressure Humidity
    00:00 +14°C° 0 mm 1 mps 767 mmHg 67%
    01:00 +13°C° 0 mm 0 mps 767 mmHg 68%
    02:00 +13°C° 0 mm 0 mps 767 mmHg 70%
    03:00 +12°C° 0 mm 0 mps 768 mmHg 71%
    04:00 +14°C° 0 mm 0 mps 768 mmHg 69%
    05:00 +15°C° 0 mm 0 mps 768 mmHg 66%
    06:00 +16°C° 0 mm 0 mps 768 mmHg 63%
    07:00 +18°C° 0 mm 0 mps 768 mmHg 58%
    08:00 +22°C° 0 mm 1 mps 768 mmHg 54%
    09:00 +24°C° 0 mm 1 mps 768 mmHg 49%
    10:00 +25°C° 0 mm 1 mps 767 mmHg 46%
    11:00 +26°C° 0 mm 2 mps 767 mmHg 43%
    12:00 +27°C° 0 mm 2 mps 767 mmHg 40%
    13:00 +27°C° 0 mm 2 mps 766 mmHg 40%
    14:00 +27°C° 0 mm 2 mps 766 mmHg 40%
    15:00 +27°C° 0 mm 3 mps 766 mmHg 40%
    16:00 +27°C° 0 mm 2 mps 765 mmHg 45%
    17:00 +26°C° 0 mm 2 mps 765 mmHg 49%
    18:00 +25°C° 0 mm 1 mps 764 mmHg 54%
    19:00 +24°C° 0 mm 1 mps 764 mmHg 55%
    20:00 +22°C° 0 mm 1 mps 764 mmHg 57%
    21:00 +21°C° 0 mm 1 mps 764 mmHg 58%
    22:00 +21°C° 0 mm 1 mps 764 mmHg 60%
    23:00 +20°C° 0 mm 1 mps 763 mmHg 62%

    Day after tomorrow, 24 May, Thursday

    Time Temperature Precipitation Wind Pressure Humidity
    00:00 +19°C° 0 mm 2 mps 763 mmHg 63%
    01:00 +18°C° 0 mm 2 mps 763 mmHg 65%
    02:00 +18°C° 0 mm 2 mps 763 mmHg 66%
    03:00 +18°C° 0 mm 2 mps 762 mmHg 68%
    04:00 +18°C° 0 mm 2 mps 762 mmHg 68%
    05:00 +19°C° 0 mm 2 mps 762 mmHg 69%
    06:00 +19°C° 0 mm 2 mps 762 mmHg 70%
    07:00 +20°C° 0 mm 2 mps 762 mmHg 69%
    08:00 +21°C° 0 mm 2 mps 762 mmHg 67%
    09:00 +22°C° 0 mm 3 mps 761 mmHg 66%
    10:00 +23°C° 0.1 mm 2 mps 761 mmHg 65%
    11:00 +24°C° 0.1 mm 2 mps 761 mmHg 64%
    12:00 +25°C° 0.1 mm 2 mps 760 mmHg 62%
    13:00 +25°C° 0 mm 2 mps 760 mmHg 60%
    14:00 +26°C° 0 mm 2 mps 760 mmHg 58%
    15:00 +27°C° 0 mm 2 mps 759 mmHg 55%
    16:00 +26°C° 0 mm 2 mps 759 mmHg 60%
    17:00 +25°C° 0 mm 3 mps 758 mmHg 65%
    18:00 +24°C° 0 mm 3 mps 758 mmHg 69%
    19:00 +21°C° 0.2 mm 3 mps 758 mmHg 73%
    20:00 +20°C° 0.2 mm 3 mps 757 mmHg 76%
    21:00 +19°C° 0.2 mm 3 mps 757 mmHg 79%
    22:00 +18°C° 0.4 mm 3 mps 757 mmHg 82%
    23:00 +18°C° 0.4 mm 3 mps 757 mmHg 85%

    25 May, Friday

    Time Temperature Precipitation Wind Pressure Humidity
    00:00 +17°C° 0.4 mm 3 mps 757 mmHg 87%
    01:00 +17°C° 0.3 mm 2 mps 756 mmHg 89%
    02:00 +18°C° 0.3 mm 1 mps 756 mmHg 90%
    03:00 +15°C° 0.3 mm 0 mps 756 mmHg 92%
    04:00 +18°C° 0.6 mm 1 mps 756 mmHg 92%
    05:00 +17°C° 0.6 mm 2 mps 756 mmHg 93%
    06:00 +17°C° 0.6 mm 2 mps 756 mmHg 93%
    07:00 +17°C° 0.6 mm 3 mps 756 mmHg 90%
    08:00 +17°C° 0.6 mm 4 mps 756 mmHg 87%
    09:00 +18°C° 0.6 mm 4 mps 756 mmHg 84%
    10:00 +17°C° 0.3 mm 5 mps 756 mmHg 78%
    11:00 +17°C° 0.3 mm 5 mps 756 mmHg 72%
    12:00 +17°C° 0.3 mm 5 mps 756 mmHg 66%
    13:00 +17°C° 0 mm 5 mps 756 mmHg 64%
    14:00 +17°C° 0 mm 6 mps 757 mmHg 61%
    15:00 +16°C° 0 mm 6 mps 757 mmHg 58%
    16:00 +16°C° 0 mm 6 mps 757 mmHg 59%
    17:00 +15°C° 0 mm 6 mps 757 mmHg 60%
    18:00 +14°C° 0 mm 7 mps 758 mmHg 61%
    19:00 +13°C° 0 mm 6 mps 758 mmHg 61%
    20:00 +10°C° 0 mm 6 mps 758 mmHg 62%
    21:00 +9°C° 0 mm 6 mps 759 mmHg 62%
    22:00 +8°C° 0 mm 6 mps 759 mmHg 60%
    23:00 +8°C° 0 mm 6 mps 760 mmHg 59%

    26 May, Saturday

    Time Temperature Precipitation Wind Pressure Humidity
    00:00 +7°C° 0 mm 6 mps 760 mmHg 57%
    01:00 +7°C° 0 mm 6 mps 760 mmHg 57%
    02:00 +5°C° 0 mm 6 mps 761 mmHg 57%
    03:00 +4°C° 0 mm 6 mps 761 mmHg 57%
    04:00 +5°C° 0 mm 7 mps 762 mmHg 55%
    05:00 +5°C° 0 mm 8 mps 762 mmHg 54%
    06:00 +5°C° 0 mm 8 mps 762 mmHg 53%
    07:00 +6°C° 0 mm 9 mps 763 mmHg 50%
    08:00 +7°C° 0 mm 9 mps 763 mmHg 47%
    09:00 +8°C° 0 mm 9 mps 764 mmHg 45%
    10:00 +8°C° 0 mm 9 mps 764 mmHg 44%
    11:00 +10°C° 0 mm 9 mps 764 mmHg 44%
    12:00 +11°C° 0 mm 9 mps 764 mmHg 43%
    13:00 +12°C° 0 mm 9 mps 764 mmHg 43%
    14:00 +12°C° 0 mm 9 mps 765 mmHg 42%
    15:00 +12°C° 0 mm 8 mps 765 mmHg 42%
    16:00 +12°C° 0 mm 7 mps 765 mmHg 47%
    17:00 +13°C° 0 mm 5 mps 765 mmHg 52%
    18:00 +13°C° 0 mm 4 mps 765 mmHg 57%
    19:00 +11°C° 0 mm 3 mps 765 mmHg 61%
    20:00 +10°C° 0 mm 3 mps 766 mmHg 64%
    21:00 +8°C° 0 mm 2 mps 766 mmHg 67%
    22:00 +8°C° 0 mm 2 mps 766 mmHg 69%
    23:00 +8°C° 0 mm 2 mps 766 mmHg 70%

    27 May, Sunday

    Time Temperature Precipitation Wind Pressure Humidity
    00:00 +7°C° 0 mm 2 mps 766 mmHg 72%
    01:00 +7°C° 0 mm 2 mps 766 mmHg 73%
    02:00 +7°C° 0 mm 2 mps 766 mmHg 73%
    03:00 +7°C° 0 mm 3 mps 765 mmHg 74%
    04:00 +8°C° 0 mm 3 mps 765 mmHg 72%
    05:00 +9°C° 0 mm 3 mps 765 mmHg 71%
    06:00 +11°C° 0 mm 4 mps 765 mmHg 70%
    07:00 +12°C° 0 mm 4 mps 764 mmHg 68%
    08:00 +14°C° 0 mm 4 mps 763 mmHg 66%
    09:00 +15°C° 0 mm 4 mps 763 mmHg 64%
    10:00 +16°C° 0 mm 5 mps 762 mmHg 62%
    11:00 +19°C° 0 mm 6 mps 762 mmHg 61%
    12:00 +20°C° 0 mm 7 mps 761 mmHg 59%
    13:00 +21°C° 0 mm 7 mps 760 mmHg 57%
    14:00 +21°C° 0 mm 7 mps 760 mmHg 56%
    15:00 +22°C° 0 mm 7 mps 759 mmHg 54%
    16:00 +22°C° 0 mm 7 mps 758 mmHg 57%
    17:00 +21°C° 0 mm 6 mps 758 mmHg 60%
    18:00 +21°C° 0 mm 6 mps 757 mmHg 63%
    19:00 +20°C° 0.4 mm 6 mps 757 mmHg 68%
    20:00 +17°C° 0.4 mm 6 mps 756 mmHg 73%
    21:00 +16°C° 0.4 mm 7 mps 756 mmHg 78%
    22:00 +15°C° 0.5 mm 7 mps 756 mmHg 82%
    23:00 +14°C° 0.5 mm 6 mps 756 mmHg 86%
    Show more